User: anonymous   Login
Location: Caltech
(34.1382°N, 118.1253°W)
Time: 00:00:03
(UTC-08:00)
Language:

COSMOS 2428 - Orbit

View from above orbital plane
View from above orbital plane
View from above satellite
View from above satellite

Ground track
Ground track

The orbit data is extracted from the following two-line orbital elements,

1 31792U 07029A   14328.24033632  .00000466  00000-0  27785-3 0  2060
2 31792 070.9771 214.2482 0012358 248.3128 217.4412 14.12480167381912
Epoch (UTC): 24 November 2014 05:46:05
Eccentricity: 0.0012358
inclination: 70.9771°
perigee height: 842 km
apogee height: 860 km
right ascension of ascending node: 214.2482°
argument of perigee: 248.3128°
revolutions per day: 14.12480167
mean anomaly at epoch: 217.4412°
orbit number at epoch: 38191

The dashed part of the orbit path shows where the satellite is in the earth's shadow,  

DLR